#�ϑ�����,���ϕ���,���ϕ���,�ő啗��,�ő啗����������,�ő�u�ԕ���,�ő�u�ԕ�����������
#(�N����),(m/s)   ,(16����),(m/s)   ,(16����)        ,(m/s)       ,(16����)            
2012/7/16 0:01,2.3,4,2.4,4,3.3,5
2012/7/16 0:02,2.3,4,2.3,4,2.9,3
2012/7/16 0:03,2.3,4,2.3,4,3.7,3
2012/7/16 0:04,2.3,4,2.3,4,2.9,6
2012/7/16 0:05,2.3,4,2.3,4,3,6
2012/7/16 0:06,2.3,4,2.3,4,2.9,4
2012/7/16 0:07,2.2,4,2.3,4,1.9,4
2012/7/16 0:08,2.1,4,2.2,4,3.8,4
2012/7/16 0:09,2.1,4,2.1,4,3.1,5
2012/7/16 0:10,2.1,4,2.1,4,4.2,3
2012/7/16 0:11,2.1,4,2.1,4,2.6,4
2012/7/16 0:12,2.1,4,2.1,4,2.4,5
2012/7/16 0:13,2.1,4,2.1,4,4.3,4
2012/7/16 0:14,2.2,4,2.2,4,4.4,5
2012/7/16 0:15,2.3,4,2.3,4,3.7,4
2012/7/16 0:16,2.3,4,2.3,4,2.2,4
2012/7/16 0:17,2.3,4,2.3,4,2.4,5
2012/7/16 0:18,2.3,4,2.3,4,2.7,5
2012/7/16 0:19,2.3,4,2.3,4,3.1,6
2012/7/16 0:20,2.2,5,2.3,4,2.6,5
2012/7/16 0:21,2.1,4,2.2,4,2.6,4
2012/7/16 0:22,2.3,4,2.3,4,4.3,4
2012/7/16 0:23,2.3,5,2.3,4,4.4,5
2012/7/16 0:24,2.2,5,2.3,4,3.2,4
2012/7/16 0:25,2.2,5,2.3,4,3.6,5
2012/7/16 0:26,2.3,5,2.3,4,2.7,5
2012/7/16 0:27,2.2,5,2.3,4,2.2,3
2012/7/16 0:28,2.2,4,2.2,4,2.6,3
2012/7/16 0:29,2.1,4,2.1,4,2,4
2012/7/16 0:30,2,4,2.1,4,3.8,4
2012/7/16 0:31,2.2,4,2.2,4,4.1,5
2012/7/16 0:32,2.2,4,2.3,4,3.9,4
2012/7/16 0:33,2.2,4,2.2,5,4.1,4
2012/7/16 0:34,2.2,4,2.2,5,3.8,4
2012/7/16 0:35,2.2,4,2.2,5,3.6,3
2012/7/16 0:36,2.2,4,2.2,5,2.5,5
2012/7/16 0:37,2.2,4,2.2,4,2.4,4
2012/7/16 0:38,2.2,4,2.2,4,1.8,2
2012/7/16 0:39,2.1,4,2.2,4,1.8,4
2012/7/16 0:40,2.1,4,2.1,4,2.1,4
2012/7/16 0:41,1.9,4,2.1,4,2.1,3
2012/7/16 0:42,1.8,4,1.9,4,2.7,5
2012/7/16 0:43,1.7,4,1.8,4,2.6,5
2012/7/16 0:44,1.6,4,1.6,4,2,5
2012/7/16 0:45,1.4,4,1.6,4,2.1,3
2012/7/16 0:46,1.4,4,1.4,4,2.9,3
2012/7/16 0:47,1.4,4,1.4,4,2.7,4
2012/7/16 0:48,1.5,4,1.5,4,2.5,5
2012/7/16 0:49,1.6,4,1.6,4,3,5
2012/7/16 0:50,1.7,4,1.7,4,3,6
2012/7/16 0:51,1.7,4,1.7,4,3.5,3
2012/7/16 0:52,1.8,4,1.8,4,3,4
2012/7/16 0:53,1.7,4,1.8,4,2.2,4
2012/7/16 0:54,1.8,4,1.8,4,2.1,4
2012/7/16 0:55,1.8,4,1.8,4,2.2,5
2012/7/16 0:56,1.8,4,1.8,4,2.9,4
2012/7/16 0:57,1.8,4,1.8,4,2.5,4
2012/7/16 0:58,1.7,4,1.8,4,1.5,6
2012/7/16 0:59,1.6,4,1.7,4,1.6,4
2012/7/16 1:00,1.5,4,1.6,4,2.2,4
2012/7/16 1:01,1.5,4,1.6,4,3.1,5
2012/7/16 1:02,1.5,4,1.5,4,1.6,4
2012/7/16 1:03,1.4,4,1.5,4,1.3,4
2012/7/16 1:04,1.4,4,1.4,4,1.9,5
2012/7/16 1:05,1.3,4,1.4,4,1.5,5
2012/7/16 1:06,1.2,4,1.3,4,1.6,3
2012/7/16 1:07,1.2,4,1.2,4,3.6,3
2012/7/16 1:08,1.4,4,1.4,4,3.2,3
2012/7/16 1:09,1.5,3,1.5,4,3.5,3
2012/7/16 1:10,1.5,3,1.5,4,2.5,3
2012/7/16 1:11,1.4,3,1.5,4,2.4,3
2012/7/16 1:12,1.5,3,1.5,4,2,2
2012/7/16 1:13,1.5,3,1.5,4,2,4
2012/7/16 1:14,1.5,3,1.6,3,2.2,4
2012/7/16 1:15,1.7,4,1.7,3,3.7,3
2012/7/16 1:16,1.9,4,1.9,4,3.8,6
2012/7/16 1:17,1.9,4,2,4,3.2,5
2012/7/16 1:18,2,4,2,4,3.7,3
2012/7/16 1:19,2,4,2,4,4.5,5
2012/7/16 1:20,2.2,4,2.2,4,4.3,4
2012/7/16 1:21,2.1,4,2.2,4,2.6,5
2012/7/16 1:22,2.1,4,2.1,4,2.1,4
2012/7/16 1:23,2.1,4,2.1,4,2.5,3
2012/7/16 1:24,2.2,4,2.2,4,4.4,3
2012/7/16 1:25,2.2,4,2.3,4,3.5,3
2012/7/16 1:26,2.2,4,2.2,4,2.6,3
2012/7/16 1:27,2.2,3,2.2,4,4.9,3
2012/7/16 1:28,2.2,3,2.2,4,3.6,3
2012/7/16 1:29,2.2,3,2.2,4,4.1,3
2012/7/16 1:30,2.2,3,2.2,4,3.6,4
2012/7/16 1:31,2.2,3,2.2,4,2.7,3
2012/7/16 1:32,2.2,3,2.2,4,2.5,3
2012/7/16 1:33,2.4,3,2.4,3,3.7,4
2012/7/16 1:34,2.3,3,2.4,3,3.7,5
2012/7/16 1:35,2.3,3,2.3,3,3.2,3
2012/7/16 1:36,2.3,3,2.3,3,3.6,2
2012/7/16 1:37,2.2,3,2.3,3,2.6,3
2012/7/16 1:38,2.3,3,2.3,3,3.8,4
2012/7/16 1:39,2.3,3,2.3,3,5.4,3
2012/7/16 1:40,2.5,3,2.5,3,5,3
2012/7/16 1:41,2.6,3,2.6,3,4.7,3
2012/7/16 1:42,2.7,3,2.7,3,5,3
2012/7/16 1:43,2.9,3,2.9,3,4.9,3
2012/7/16 1:44,3,3,3,3,4.5,4
2012/7/16 1:45,3.1,3,3.1,3,4.5,3
2012/7/16 1:46,3.2,3,3.2,3,4.4,4
2012/7/16 1:47,3.3,4,3.3,3,3.3,4
2012/7/16 1:48,3.2,4,3.3,3,2.9,5
2012/7/16 1:49,3.1,4,3.2,3,4.1,3
2012/7/16 1:50,2.9,4,3.1,3,2.5,3
2012/7/16 1:51,2.8,4,2.8,3,3.2,4
2012/7/16 1:52,2.8,4,2.8,3,5.1,3
2012/7/16 1:53,2.7,4,2.8,3,4.4,3
2012/7/16 1:54,2.6,4,2.7,3,3.2,4
2012/7/16 1:55,2.5,4,2.6,3,3.9,5
2012/7/16 1:56,2.4,4,2.5,3,3.9,5
2012/7/16 1:57,2.5,4,2.5,4,4.3,4
2012/7/16 1:58,2.6,4,2.6,4,4.2,5
2012/7/16 1:59,2.6,4,2.6,4,5.7,5
2012/7/16 2:00,2.9,4,2.9,4,5.7,5
2012/7/16 2:01,2.9,4,2.9,4,3.9,3
2012/7/16 2:02,2.9,4,2.9,4,4.8,4
2012/7/16 2:03,2.8,4,2.9,4,3.9,4
2012/7/16 2:04,2.8,4,2.8,4,3,5
2012/7/16 2:05,2.8,4,2.8,4,3.7,5
2012/7/16 2:06,2.8,4,2.8,4,4.5,4
2012/7/16 2:07,2.8,4,2.8,4,4.8,5
2012/7/16 2:08,2.8,4,2.8,4,4.2,5
2012/7/16 2:09,2.7,4,2.8,4,4.7,5
2012/7/16 2:10,2.6,4,2.7,4,4.8,4
2012/7/16 2:11,2.5,4,2.6,4,2.7,3
2012/7/16 2:12,2.4,4,2.5,4,2.9,4
2012/7/16 2:13,2.5,4,2.5,4,4.7,5
2012/7/16 2:14,2.6,4,2.6,4,5.1,5
2012/7/16 2:15,2.8,4,2.8,4,4.9,5
2012/7/16 2:16,2.8,4,2.8,4,5,4
2012/7/16 2:17,2.8,4,2.9,4,4.9,5
2012/7/16 2:18,3,4,3,4,6,4
2012/7/16 2:19,3.2,4,3.2,4,5.8,5
2012/7/16 2:20,3.2,4,3.2,4,4.3,5
2012/7/16 2:21,3.2,5,3.3,5,3.6,4
2012/7/16 2:22,3.3,5,3.3,5,4.1,5
2012/7/16 2:23,3.3,4,3.3,5,5.2,4
2012/7/16 2:24,3.3,5,3.3,5,6.1,5
2012/7/16 2:25,3.3,5,3.3,5,6.1,5
2012/7/16 2:26,3.3,5,3.3,5,4.8,5
2012/7/16 2:27,3.2,5,3.3,5,3.2,4
2012/7/16 2:28,3.1,4,3.3,5,3.7,4
2012/7/16 2:29,3,4,3.1,5,6.5,5
2012/7/16 2:30,3,4,3,5,5.8,3
2012/7/16 2:31,3.2,4,3.2,5,5.2,3
2012/7/16 2:32,3.3,4,3.3,4,4.9,5
2012/7/16 2:33,3.2,4,3.3,4,4.7,4
2012/7/16 2:34,3.1,4,3.2,5,3.3,5
2012/7/16 2:35,2.9,4,3.1,5,3.3,5
2012/7/16 2:36,2.8,4,2.9,5,3,4
2012/7/16 2:37,2.8,4,2.8,5,3.8,4
2012/7/16 2:38,2.8,4,2.8,4,3.9,4
2012/7/16 2:39,2.8,4,2.8,4,4.4,3
2012/7/16 2:40,2.8,4,2.8,4,4.9,5
2012/7/16 2:41,2.7,4,2.8,4,4.5,6
2012/7/16 2:42,2.6,4,2.7,4,4.8,3
2012/7/16 2:43,2.6,4,2.6,4,4.4,4
2012/7/16 2:44,2.6,4,2.6,4,3.8,5
2012/7/16 2:45,2.7,4,2.7,4,3.8,5
2012/7/16 2:46,2.7,4,2.7,4,3.8,5
2012/7/16 2:47,2.9,4,2.9,4,4.9,3
2012/7/16 2:48,3,4,3,4,5.4,5
2012/7/16 2:49,3,4,3,4,4.3,4
2012/7/16 2:50,2.9,4,3,4,4.3,4
2012/7/16 2:51,2.9,4,2.9,4,5.1,5
2012/7/16 2:52,3,4,3,4,4.7,5
2012/7/16 2:53,3,5,3,4,4.2,6
2012/7/16 2:54,3,5,3,4,2.9,5
2012/7/16 2:55,2.9,5,2.9,4,4.7,5
2012/7/16 2:56,3,5,3,4,5.4,4
2012/7/16 2:57,3,5,3,4,3.5,5
2012/7/16 2:58,2.8,5,3,4,4.5,7
2012/7/16 2:59,3,5,3,4,6.8,5
2012/7/16 3:00,3,5,3,4,4.4,5
2012/7/16 3:01,2.9,5,3,4,4.2,3
2012/7/16 3:02,2.8,5,2.9,5,4.2,5
2012/7/16 3:03,2.7,5,2.8,5,2.4,2
2012/7/16 3:04,2.7,5,2.7,5,3.8,5
2012/7/16 3:05,2.6,4,2.7,5,3.9,3
2012/7/16 3:06,2.5,4,2.6,5,3.2,6
2012/7/16 3:07,2.5,4,2.5,5,4.5,4
2012/7/16 3:08,2.5,4,2.5,5,3.7,5
2012/7/16 3:09,2.4,4,2.5,5,3.8,3
2012/7/16 3:10,2.4,4,2.4,5,5.2,5
2012/7/16 3:11,2.4,4,2.4,5,3.2,3
2012/7/16 3:12,2.3,4,2.4,5,3.6,4
2012/7/16 3:13,2.4,4,2.4,5,2.9,4
2012/7/16 3:14,2.5,4,2.5,5,4.2,5
2012/7/16 3:15,2.6,4,2.6,4,3.5,4
2012/7/16 3:16,2.6,4,2.6,4,3.9,4
2012/7/16 3:17,2.5,4,2.6,4,3.6,3
2012/7/16 3:18,2.4,4,2.5,4,2.9,3
2012/7/16 3:19,2.3,4,2.4,4,3,4
2012/7/16 3:20,2.2,4,2.3,4,4.1,5
2012/7/16 3:21,2.3,4,2.3,4,3.8,4
2012/7/16 3:22,2.3,4,2.3,4,3.6,5
2012/7/16 3:23,2.3,4,2.4,4,2.9,5
2012/7/16 3:24,2.1,4,2.3,4,1.5,4
2012/7/16 3:25,2,4,2.1,4,3,4
2012/7/16 3:26,2,4,2,4,3.3,3
2012/7/16 3:27,1.9,4,2,4,2.5,5
2012/7/16 3:28,2,4,2,4,3.1,4
2012/7/16 3:29,2,4,2,4,3.5,4
2012/7/16 3:30,1.9,4,2,4,2.5,2
2012/7/16 3:31,1.8,4,1.9,4,2,2
2012/7/16 3:32,1.7,4,1.8,4,2.1,3
2012/7/16 3:33,1.7,4,1.7,4,3.5,4
2012/7/16 3:34,1.7,4,1.7,4,2.2,4
2012/7/16 3:35,1.8,4,1.8,4,3.8,3
2012/7/16 3:36,1.7,4,1.8,4,2.2,4
2012/7/16 3:37,1.8,4,1.8,4,3.3,5
2012/7/16 3:38,1.7,4,1.7,4,2.5,6
2012/7/16 3:39,1.7,4,1.7,4,2.7,2
2012/7/16 3:40,1.7,4,1.7,4,2.4,2
2012/7/16 3:41,1.7,4,1.7,4,2.2,4
2012/7/16 3:42,1.6,4,1.7,4,1.9,3
2012/7/16 3:43,1.6,4,1.6,4,2.2,2
2012/7/16 3:44,1.6,4,1.6,4,1.9,4
2012/7/16 3:45,1.5,4,1.6,4,3.7,3
2012/7/16 3:46,1.6,3,1.6,4,2.5,3
2012/7/16 3:47,1.5,3,1.6,4,2.2,2
2012/7/16 3:48,1.5,3,1.5,4,2.2,3
2012/7/16 3:49,1.5,3,1.5,4,2.4,3
2012/7/16 3:50,1.5,3,1.5,4,2.7,3
2012/7/16 3:51,1.6,3,1.6,4,2.9,4
2012/7/16 3:52,1.7,3,1.7,3,3.5,3
2012/7/16 3:53,1.7,3,1.7,3,3.2,3
2012/7/16 3:54,1.9,3,1.9,3,4.2,4
2012/7/16 3:55,1.9,3,1.9,3,3.7,5
2012/7/16 3:56,2,3,2,3,3.3,5
2012/7/16 3:57,2.1,3,2.1,3,3.3,3
2012/7/16 3:58,2.1,3,2.1,3,3.1,6
2012/7/16 3:59,2.2,3,2.2,3,3.8,4
2012/7/16 4:00,2.2,4,2.2,3,2.4,3
2012/7/16 4:01,2.1,4,2.2,3,1.5,4
2012/7/16 4:02,2.1,4,2.1,3,2.9,4
2012/7/16 4:03,2,4,2.1,3,2.1,2
2012/7/16 4:04,1.8,4,2,3,2.1,6
2012/7/16 4:05,1.7,4,1.8,3,2,5
2012/7/16 4:06,1.5,4,1.7,3,1.5,3
2012/7/16 4:07,1.4,3,1.5,3,1.6,2
2012/7/16 4:08,1.4,3,1.4,3,1.9,3
2012/7/16 4:09,1.3,3,1.4,3,2.7,4
2012/7/16 4:10,1.3,3,1.3,4,3.1,4
2012/7/16 4:11,1.3,3,1.3,4,1.9,3
2012/7/16 4:12,1.2,3,1.3,4,1.5,3
2012/7/16 4:13,1.2,3,1.2,4,1.8,4
2012/7/16 4:14,1.2,3,1.2,4,1.8,3
2012/7/16 4:15,1.1,3,1.2,4,1.6,3
2012/7/16 4:16,1.1,3,1.1,4,1.5,2
2012/7/16 4:17,1.2,3,1.2,3,1.9,3
2012/7/16 4:18,1.1,2,1.2,3,1,2
2012/7/16 4:19,1.1,3,1.1,3,1.5,3
2012/7/16 4:20,1,2,1.1,3,1.8,2
2012/7/16 4:21,1,3,1,3,1.8,3
2012/7/16 4:22,1.1,3,1.1,3,2.2,3
2012/7/16 4:23,1.2,3,1.2,3,2.5,4
2012/7/16 4:24,1.2,3,1.2,3,1.6,3
2012/7/16 4:25,1.3,3,1.3,3,3,3
2012/7/16 4:26,1.3,3,1.3,3,2.1,3
2012/7/16 4:27,1.3,3,1.3,3,1.9,3
2012/7/16 4:28,1.4,3,1.4,3,2.1,4
2012/7/16 4:29,1.4,3,1.4,3,1.9,3
2012/7/16 4:30,1.5,3,1.5,3,1.8,3
2012/7/16 4:31,1.5,3,1.5,3,2.1,2
2012/7/16 4:32,1.5,3,1.5,3,2.1,2
2012/7/16 4:33,1.5,3,1.5,3,2.5,3
2012/7/16 4:34,1.5,3,1.5,3,2.5,3
2012/7/16 4:35,1.5,3,1.5,3,2.5,4
2012/7/16 4:36,1.6,3,1.6,3,2,3
2012/7/16 4:37,1.5,3,1.6,3,1.5,3
2012/7/16 4:38,1.4,3,1.5,3,0.9,2
2012/7/16 4:39,1.4,3,1.4,3,3,4
2012/7/16 4:40,1.4,3,1.4,3,3,5
2012/7/16 4:41,1.5,3,1.5,3,3,3
2012/7/16 4:42,1.4,3,1.5,3,3.5,4
2012/7/16 4:43,1.4,3,1.4,3,1.9,3
2012/7/16 4:44,1.3,3,1.4,3,2.5,3
2012/7/16 4:45,1.4,3,1.4,3,2.5,3
2012/7/16 4:46,1.3,3,1.4,3,1.8,3
2012/7/16 4:47,1.3,3,1.3,3,1.3,3
2012/7/16 4:48,1.4,3,1.4,3,1.5,3
2012/7/16 4:49,1.3,3,1.4,3,1.3,2
2012/7/16 4:50,1.2,3,1.3,3,2.5,3
2012/7/16 4:51,1.3,3,1.3,3,2.5,5
2012/7/16 4:52,1.3,3,1.3,3,2.7,3
2012/7/16 4:53,1.3,3,1.3,3,2.2,3
2012/7/16 4:54,1.5,3,1.5,3,3.9,3
2012/7/16 4:55,1.6,3,1.6,3,3.5,3
2012/7/16 4:56,1.7,4,1.7,3,2.7,5
2012/7/16 4:57,1.8,3,1.8,3,3.6,4
2012/7/16 4:58,2,4,2,3,3.6,3
2012/7/16 4:59,2.1,3,2.1,3,3.8,4
2012/7/16 5:00,2.3,4,2.3,4,4.8,5
2012/7/16 5:01,2.4,4,2.4,4,5.1,4
2012/7/16 5:02,2.6,4,2.6,4,5.1,3
2012/7/16 5:03,2.6,4,2.6,4,3,4
2012/7/16 5:04,2.5,4,2.6,4,3.2,4
2012/7/16 5:05,2.5,4,2.5,4,3,4
2012/7/16 5:06,2.4,4,2.5,4,3.2,4
2012/7/16 5:07,2.4,4,2.4,4,3.8,4
2012/7/16 5:08,2.4,4,2.4,4,3.1,5
2012/7/16 5:09,2.4,4,2.5,4,3.5,6
2012/7/16 5:10,2.3,4,2.4,4,2.7,4
2012/7/16 5:11,2.1,4,2.3,4,2.2,4
2012/7/16 5:12,2,4,2.1,4,3.1,5
2012/7/16 5:13,2,4,2,4,2.6,5
2012/7/16 5:14,2,4,2,4,3.2,5
2012/7/16 5:15,2,4,2,4,3.2,4
2012/7/16 5:16,2,4,2.1,4,3.2,4
2012/7/16 5:17,2,4,2,4,2.2,4
2012/7/16 5:18,2,4,2,4,3,3
2012/7/16 5:19,2,4,2,4,3.7,4
2012/7/16 5:20,2,4,2.1,4,3.9,4
2012/7/16 5:21,2,4,2,4,1.9,3
2012/7/16 5:22,2,4,2,4,2.5,4
2012/7/16 5:23,2,4,2,4,2.4,2
2012/7/16 5:24,2,3,2,4,2.9,4
2012/7/16 5:25,1.9,3,2,4,2.2,4
2012/7/16 5:26,1.9,3,1.9,4,2.6,3
2012/7/16 5:27,1.9,3,2,4,3.3,3
2012/7/16 5:28,2,3,2,4,3.7,3
2012/7/16 5:29,2,3,2,4,3.2,3
2012/7/16 5:30,2,3,2,4,3.2,3
2012/7/16 5:31,2,3,2,4,3.1,3
2012/7/16 5:32,2.1,3,2.1,3,3.3,3
2012/7/16 5:33,2.1,3,2.1,3,4.2,5
2012/7/16 5:34,2.3,3,2.3,3,4.5,4
2012/7/16 5:35,2.4,3,2.4,3,3.7,3
2012/7/16 5:36,2.4,3,2.4,3,2.7,3
2012/7/16 5:37,2.3,3,2.3,3,1.6,5
2012/7/16 5:38,2.3,3,2.3,3,4.3,5
2012/7/16 5:39,2.4,4,2.4,3,4.5,5
2012/7/16 5:40,2.5,4,2.5,4,4.7,4
2012/7/16 5:41,2.5,4,2.5,4,2.9,5
2012/7/16 5:42,2.5,4,2.5,4,2.9,3
2012/7/16 5:43,2.3,4,2.5,4,2.1,4
2012/7/16 5:44,2.1,4,2.3,4,2.2,2
2012/7/16 5:45,2,4,2.1,4,2.6,3
2012/7/16 5:46,2.1,3,2.1,4,3.3,4
2012/7/16 5:47,2.3,3,2.3,4,3.9,3
2012/7/16 5:48,2.3,3,2.3,4,3.2,3
2012/7/16 5:49,2.2,3,2.2,4,3.8,4
2012/7/16 5:50,2.1,3,2.2,4,3.7,3
2012/7/16 5:51,2.2,3,2.2,4,3.8,2
2012/7/16 5:52,2.2,3,2.2,4,3.9,3
2012/7/16 5:53,2.4,3,2.4,3,3.3,3
2012/7/16 5:54,2.5,3,2.5,3,3.1,3
2012/7/16 5:55,2.5,3,2.5,3,2.7,4
2012/7/16 5:56,2.4,3,2.5,3,2.5,3
2012/7/16 5:57,2.3,3,2.4,3,2.5,3
2012/7/16 5:58,2.3,4,2.4,3,4.3,4
2012/7/16 5:59,2.3,4,2.3,3,4.1,3
2012/7/16 6:00,2.4,3,2.4,3,4.5,3
2012/7/16 6:01,2.3,4,2.4,3,2.7,3
2012/7/16 6:02,2.2,4,2.3,3,4.2,4
2012/7/16 6:03,2.3,4,2.3,3,5.1,5
2012/7/16 6:04,2.3,4,2.3,3,3.8,6
2012/7/16 6:05,2.3,4,2.3,3,4.5,5
2012/7/16 6:06,2.6,4,2.6,4,4.5,5
2012/7/16 6:07,2.7,4,2.7,4,4.8,4
2012/7/16 6:08,2.7,4,2.7,4,3.7,4
2012/7/16 6:09,2.7,4,2.7,4,3.7,3
2012/7/16 6:10,2.6,4,2.7,4,4.3,3
2012/7/16 6:11,2.8,4,2.8,4,5.2,2
2012/7/16 6:12,3,4,3,4,4.8,2
2012/7/16 6:13,2.9,4,3,4,3.7,3
2012/7/16 6:14,2.9,4,2.9,4,3.8,4
2012/7/16 6:15,2.9,4,2.9,4,4.1,3
2012/7/16 6:16,2.9,4,2.9,4,4.7,5
2012/7/16 6:17,2.9,4,2.9,4,6.2,5
2012/7/16 6:18,3,4,3,4,4.4,5
2012/7/16 6:19,3.1,4,3.1,4,5,5
2012/7/16 6:20,3.2,4,3.2,4,5,3
2012/7/16 6:21,3.1,4,3.2,4,4.4,3
2012/7/16 6:22,3,4,3.1,4,5,3
2012/7/16 6:23,3,4,3,4,4.5,3
2012/7/16 6:24,3,4,3,4,2.9,3
2012/7/16 6:25,3,4,3,4,4.8,5
2012/7/16 6:26,3,4,3,4,5.2,5
2012/7/16 6:27,3,4,3,4,4.7,4
2012/7/16 6:28,2.9,4,3,4,3.7,4
2012/7/16 6:29,2.8,4,2.9,4,4.5,4
2012/7/16 6:30,2.8,4,2.8,4,4.2,5
2012/7/16 6:31,2.7,4,2.8,4,2.9,5
2012/7/16 6:32,2.7,4,2.8,4,4.4,5
2012/7/16 6:33,2.8,4,2.8,4,5.4,5
2012/7/16 6:34,2.7,4,2.8,4,3.3,4
2012/7/16 6:35,2.7,4,2.8,4,3.6,6
2012/7/16 6:36,2.6,4,2.7,4,3.6,3
2012/7/16 6:37,2.6,4,2.6,4,4.4,5
2012/7/16 6:38,2.5,4,2.5,4,2.5,5
2012/7/16 6:39,2.3,4,2.5,4,2.7,4
2012/7/16 6:40,2.3,4,2.3,4,4.9,4
2012/7/16 6:41,2.4,4,2.4,4,3.9,5
2012/7/16 6:42,2.4,4,2.4,4,3.5,3
2012/7/16 6:43,2.3,4,2.4,4,3.3,4
2012/7/16 6:44,2.4,4,2.4,4,4.5,3
2012/7/16 6:45,2.5,4,2.5,4,4.5,5
2012/7/16 6:46,2.6,4,2.6,4,6.1,4
2012/7/16 6:47,2.7,4,2.7,4,4.9,5
2012/7/16 6:48,2.9,4,2.9,4,4.7,4
2012/7/16 6:49,3.1,4,3.1,4,5.5,5
2012/7/16 6:50,3.1,4,3.1,4,4.5,5
2012/7/16 6:51,3.1,4,3.1,4,3.6,4
2012/7/16 6:52,3,4,3.1,4,3.1,4
2012/7/16 6:53,3.1,4,3.1,4,3.3,5
2012/7/16 6:54,3,4,3.1,4,2.9,4
2012/7/16 6:55,2.9,4,2.9,4,4.9,5
2012/7/16 6:56,2.8,5,2.9,4,4.3,5
2012/7/16 6:57,2.7,5,2.8,4,4.4,5
2012/7/16 6:58,2.7,5,2.7,4,5.1,5
2012/7/16 6:59,2.6,5,2.7,4,4.9,4
2012/7/16 7:00,2.6,5,2.6,4,4.9,5
2012/7/16 7:01,2.6,5,2.6,4,3.8,5
2012/7/16 7:02,2.7,5,2.7,4,3.8,5
2012/7/16 7:03,2.7,5,2.7,4,4.1,5
2012/7/16 7:04,2.8,5,2.8,4,4.4,4
2012/7/16 7:05,2.9,5,2.9,4,4.7,6
2012/7/16 7:06,3,5,3,5,5,6
2012/7/16 7:07,3.1,5,3.1,5,6,5
2012/7/16 7:08,3.2,5,3.2,5,5.1,6
2012/7/16 7:09,3.3,5,3.3,5,6.3,5
2012/7/16 7:10,3.4,5,3.4,5,5.6,5
2012/7/16 7:11,3.4,5,3.4,5,5.8,5
2012/7/16 7:12,3.3,5,3.4,5,3.2,5
2012/7/16 7:13,3.3,5,3.3,5,3.3,5
2012/7/16 7:14,3.2,5,3.3,5,2.7,5
2012/7/16 7:15,3,5,3.2,5,2.9,4
2012/7/16 7:16,2.9,5,3,5,4.2,3
2012/7/16 7:17,2.8,5,2.9,5,4.4,4
2012/7/16 7:18,2.7,5,2.8,5,4.5,4
2012/7/16 7:19,2.6,5,2.7,5,4.9,5
2012/7/16 7:20,2.6,5,2.7,5,5.2,4
2012/7/16 7:21,2.7,5,2.7,5,5.8,3
2012/7/16 7:22,2.9,4,2.9,5,5.2,4
2012/7/16 7:23,2.9,4,2.9,5,3.6,5
2012/7/16 7:24,2.9,4,2.9,5,3.5,3
2012/7/16 7:25,2.9,4,2.9,5,3.1,5
2012/7/16 7:26,2.9,4,3,4,3.7,4
2012/7/16 7:27,2.9,4,3,4,4.8,3
2012/7/16 7:28,3,4,3,4,4.1,5
2012/7/16 7:29,3,4,3,4,3.8,4
2012/7/16 7:30,2.9,4,2.9,4,4.4,5
2012/7/16 7:31,2.8,4,2.9,4,4.5,4
2012/7/16 7:32,2.6,4,2.7,4,4.3,5
2012/7/16 7:33,2.6,4,2.6,4,3.3,4
2012/7/16 7:34,2.6,4,2.6,4,3.6,5
2012/7/16 7:35,2.7,4,2.7,4,5.4,5
2012/7/16 7:36,2.9,4,2.9,4,5.5,4
2012/7/16 7:37,2.8,4,2.9,4,3.6,3
2012/7/16 7:38,2.8,4,2.8,4,4.7,5
2012/7/16 7:39,2.8,4,2.8,4,5.1,3
2012/7/16 7:40,2.8,4,2.8,4,5.4,5
2012/7/16 7:41,2.9,4,2.9,4,5.7,5
2012/7/16 7:42,3.1,4,3.1,4,5.5,6
2012/7/16 7:43,3.1,4,3.2,4,4.3,6
2012/7/16 7:44,3.1,4,3.1,4,4.5,4
2012/7/16 7:45,3,4,3.1,4,4.4,5
2012/7/16 7:46,3,5,3,4,5.1,4
2012/7/16 7:47,3.1,5,3.1,4,4.9,4
2012/7/16 7:48,3.1,5,3.1,4,4.2,7
2012/7/16 7:49,3,5,3.1,4,3.7,7
2012/7/16 7:50,2.9,5,3,4,3.5,5
2012/7/16 7:51,2.7,5,2.9,4,2.9,6
2012/7/16 7:52,2.4,5,2.7,4,2.9,7
2012/7/16 7:53,2.5,5,2.5,4,3.9,6
2012/7/16 7:54,2.6,6,2.6,4,4.8,6
2012/7/16 7:55,2.7,6,2.7,5,4.9,6
2012/7/16 7:56,2.7,6,2.7,5,4.4,7
2012/7/16 7:57,2.6,6,2.7,5,5.7,7
2012/7/16 7:58,2.5,6,2.6,5,3.9,5
2012/7/16 7:59,2.7,6,2.7,5,6.9,6
2012/7/16 8:00,2.9,6,2.9,5,5.5,5
2012/7/16 8:01,3.1,6,3.1,6,5.4,5
2012/7/16 8:02,3.3,6,3.3,6,5.4,5
2012/7/16 8:03,3.3,6,3.3,6,4.4,5
2012/7/16 8:04,3.3,6,3.3,6,6.4,5
2012/7/16 8:05,3.3,6,3.3,6,6,7
2012/7/16 8:06,3.4,6,3.5,6,5.6,6
2012/7/16 8:07,3.4,6,3.4,6,4.5,7
2012/7/16 8:08,3.5,6,3.5,6,4.3,8
2012/7/16 8:09,3.4,6,3.5,6,5,6
2012/7/16 8:10,3.5,6,3.5,6,5.7,6
2012/7/16 8:11,3.4,6,3.5,6,4.4,6
2012/7/16 8:12,3.3,6,3.4,6,2.4,7
2012/7/16 8:13,3.1,6,3.2,6,2.9,7
2012/7/16 8:14,2.9,6,3.1,6,3,6
2012/7/16 8:15,2.7,6,2.9,6,2.7,6
2012/7/16 8:16,2.5,6,2.6,6,3.5,7
2012/7/16 8:17,2.4,6,2.4,6,4.5,6
2012/7/16 8:18,2.5,6,2.5,6,6,6
2012/7/16 8:19,2.7,6,2.7,6,5.8,5
2012/7/16 8:20,2.5,6,2.6,6,4.5,5
2012/7/16 8:21,2.4,6,2.5,6,4.4,6
2012/7/16 8:22,2.6,6,2.6,6,5.4,6
2012/7/16 8:23,2.9,6,2.9,6,6.5,6
2012/7/16 8:24,3.1,6,3.1,6,6,5
2012/7/16 8:25,3.3,6,3.3,6,5.5,6
2012/7/16 8:26,3.5,6,3.5,6,5.4,6
2012/7/16 8:27,3.6,6,3.6,6,5.7,6
2012/7/16 8:28,3.6,6,3.6,6,5.1,5
2012/7/16 8:29,3.4,5,3.5,6,5.4,6
2012/7/16 8:30,3.5,6,3.5,6,5.1,5
2012/7/16 8:31,3.5,5,3.5,6,4.8,5
2012/7/16 8:32,3.5,5,3.6,6,4.9,5
2012/7/16 8:33,3.4,5,3.5,6,4.7,4
2012/7/16 8:34,3.4,5,3.5,6,5.7,5
2012/7/16 8:35,3.3,5,3.4,6,4.5,7
2012/7/16 8:36,3.5,5,3.5,6,6.1,6
2012/7/16 8:37,3.4,6,3.5,6,5.7,8
2012/7/16 8:38,3.4,6,3.4,5,4.2,6
2012/7/16 8:39,3.3,6,3.4,5,4.9,6
2012/7/16 8:40,3.2,6,3.3,5,4.4,6
2012/7/16 8:41,3.3,6,3.3,5,4.9,7
2012/7/16 8:42,3.3,6,3.3,5,5.1,7
2012/7/16 8:43,3.4,6,3.4,5,5.4,7
2012/7/16 8:44,3.2,7,3.4,5,4.5,6
2012/7/16 8:45,3.2,7,3.3,5,6.8,7
2012/7/16 8:46,3,7,3.3,5,4.8,7
2012/7/16 8:47,2.9,7,3,6,3.5,6
2012/7/16 8:48,2.7,7,2.9,6,2.2,6
2012/7/16 8:49,2.6,7,2.7,6,2.1,5
2012/7/16 8:50,2.6,7,2.6,6,3.9,6
2012/7/16 8:51,2.5,7,2.6,6,4.4,4
2012/7/16 8:52,2.6,6,2.6,6,5.1,6
2012/7/16 8:53,2.4,6,2.6,6,3.9,6
2012/7/16 8:54,2.3,6,2.4,7,3.3,7
2012/7/16 8:55,2,6,2.3,7,4.1,6
2012/7/16 8:56,2.1,6,2.1,7,4.2,6
2012/7/16 8:57,2.1,6,2.1,7,3.6,7
2012/7/16 8:58,2.2,6,2.2,7,5,6
2012/7/16 8:59,2.4,6,2.4,7,4.2,6
2012/7/16 9:00,2.3,7,2.4,7,2.4,6
2012/7/16 9:01,2.2,7,2.3,6,4.2,7
2012/7/16 9:02,2.2,7,2.2,6,4.7,7
2012/7/16 9:03,2.1,7,2.2,6,3.2,6
2012/7/16 9:04,2.3,7,2.3,6,4.8,6
2012/7/16 9:05,2.6,6,2.6,7,5.7,5
2012/7/16 9:06,2.8,6,2.8,6,5.5,6
2012/7/16 9:07,2.9,6,2.9,6,5.7,6
2012/7/16 9:08,3,6,3.1,6,5.1,5
2012/7/16 9:09,2.9,6,3,6,4.2,5
2012/7/16 9:10,3,6,3,6,3.9,6
2012/7/16 9:11,3.1,6,3.1,6,4.9,6
2012/7/16 9:12,3.1,6,3.1,6,5.4,6
2012/7/16 9:13,3.3,6,3.3,6,5.7,6
2012/7/16 9:14,3.3,6,3.4,6,4.9,7
2012/7/16 9:15,3.1,6,3.3,6,3.7,5
2012/7/16 9:16,2.9,6,3.1,6,3.8,6
2012/7/16 9:17,2.8,6,2.9,6,4.7,6
2012/7/16 9:18,2.7,6,2.8,6,3.2,7
2012/7/16 9:19,2.7,6,2.7,6,5,7
2012/7/16 9:20,2.7,6,2.8,6,5.2,6
2012/7/16 9:21,2.6,6,2.7,6,3.8,7
2012/7/16 9:22,2.5,6,2.6,6,4.2,6
2012/7/16 9:23,2.3,6,2.5,6,3.9,6
2012/7/16 9:24,2.2,6,2.3,6,4.3,6
2012/7/16 9:25,2.2,6,2.2,6,3.3,6
2012/7/16 9:26,2.1,6,2.2,6,3.7,5
2012/7/16 9:27,2,6,2.1,6,3.9,6
2012/7/16 9:28,2.1,6,2.1,6,5,7
2012/7/16 9:29,2.1,6,2.1,6,3,8
2012/7/16 9:30,2,7,2.1,6,2.4,8
2012/7/16 9:31,1.9,7,2,6,3.1,8
2012/7/16 9:32,1.9,7,2,6,3.5,5
2012/7/16 9:33,1.9,7,1.9,6,2.6,6
2012/7/16 9:34,1.9,7,1.9,6,3.3,6
2012/7/16 9:35,2,6,2,6,3.1,5
2012/7/16 9:36,1.9,6,1.9,6,2.6,6
2012/7/16 9:37,2,6,2,6,3.3,5
2012/7/16 9:38,2,6,2,6,3.2,6
2012/7/16 9:39,2,6,2,6,2.6,6
2012/7/16 9:40,2,6,2,7,2.4,7
2012/7/16 9:41,1.9,6,2,7,2,8
2012/7/16 9:42,1.8,6,1.9,6,1.8,6
2012/7/16 9:43,1.8,6,1.8,6,2.1,4
2012/7/16 9:44,1.8,6,1.8,6,4.1,5
2012/7/16 9:45,1.7,6,1.8,6,2.2,6
2012/7/16 9:46,1.7,6,1.7,6,2.4,6
2012/7/16 9:47,1.6,6,1.7,6,3,6
2012/7/16 9:48,1.5,6,1.6,6,2.7,7
2012/7/16 9:49,1.6,6,1.6,6,3.6,5
2012/7/16 9:50,1.7,6,1.7,6,3.6,6
2012/7/16 9:51,1.8,6,1.8,6,4.2,7
2012/7/16 9:52,2,6,2,6,4.7,6
2012/7/16 9:53,2.1,6,2.1,6,3.3,6
2012/7/16 9:54,2.1,6,2.2,6,3.7,6
2012/7/16 9:55,2.2,6,2.2,6,3.1,5
2012/7/16 9:56,2.3,6,2.3,6,4.1,6
2012/7/16 9:57,2.5,6,2.5,6,4.8,6
2012/7/16 9:58,2.4,6,2.5,6,2.7,6
2012/7/16 9:59,2.3,6,2.4,6,2.7,7
2012/7/16 10:00,2.3,6,2.3,6,3.9,8
2012/7/16 10:01,2.2,6,2.3,6,3.9,10
2012/7/16 10:02,2.1,6,2.2,6,5.4,8
2012/7/16 10:03,2.2,7,2.2,6,5,7
2012/7/16 10:04,2.3,7,2.3,6,5.7,8
2012/7/16 10:05,2.3,7,2.4,6,4.9,9
2012/7/16 10:06,2.2,7,2.3,6,2.5,4
2012/7/16 10:07,2.2,7,2.2,6,4.1,6
2012/7/16 10:08,2.3,7,2.3,6,3.6,6
2012/7/16 10:09,2.2,7,2.3,7,2,6
2012/7/16 10:10,2.3,7,2.3,7,5.1,6
2012/7/16 10:11,2.4,7,2.4,7,4.8,6
2012/7/16 10:12,2.4,7,2.4,7,3.9,6
2012/7/16 10:13,2.4,6,2.4,7,5,6
2012/7/16 10:14,2.3,6,2.4,7,3.8,7
2012/7/16 10:15,2.3,6,2.3,7,4.8,3
2012/7/16 10:16,2.6,6,2.6,6,6.4,5
2012/7/16 10:17,2.7,6,2.7,6,5.4,5
2012/7/16 10:18,2.9,6,2.9,6,5.8,6
2012/7/16 10:19,3.3,6,3.3,6,5.8,6
2012/7/16 10:20,3.3,6,3.4,6,4.3,6
2012/7/16 10:21,3.2,6,3.3,6,3.3,6
2012/7/16 10:22,3.2,6,3.2,6,3.3,6
2012/7/16 10:23,3.2,6,3.2,6,3.9,6
2012/7/16 10:24,3.3,5,3.3,6,5.2,6
2012/7/16 10:25,3.4,6,3.4,6,6,5
2012/7/16 10:26,3.3,6,3.4,6,4.7,4
2012/7/16 10:27,3.1,5,3.3,6,3.6,4
2012/7/16 10:28,3,5,3.1,6,3.8,5
2012/7/16 10:29,2.7,5,2.9,6,3.3,5
2012/7/16 10:30,2.6,5,2.7,6,2.6,5
2012/7/16 10:31,2.6,5,2.6,6,4.1,6
2012/7/16 10:32,2.8,5,2.8,6,4.9,4
2012/7/16 10:33,3,5,3,6,5.2,5
2012/7/16 10:34,2.9,5,3,6,4.9,5
2012/7/16 10:35,2.9,5,2.9,6,4.1,6
2012/7/16 10:36,2.7,5,2.8,6,3,6
2012/7/16 10:37,2.6,6,2.7,5,2.1,9
2012/7/16 10:38,2.5,6,2.6,5,3.3,8
2012/7/16 10:39,2.5,6,2.5,5,3.7,6
2012/7/16 10:40,2.6,6,2.6,5,4.7,7
2012/7/16 10:41,2.6,6,2.6,5,5.6,7
2012/7/16 10:42,2.6,6,2.6,5,5.2,5
2012/7/16 10:43,2.5,6,2.6,5,4.4,5
2012/7/16 10:44,2.5,6,2.5,5,4.2,6
2012/7/16 10:45,2.4,6,2.5,5,2.5,5
2012/7/16 10:46,2.3,6,2.4,5,2.4,4
2012/7/16 10:47,2.3,6,2.4,6,2.5,6
2012/7/16 10:48,2.3,6,2.3,6,2.2,5
2012/7/16 10:49,2.2,6,2.3,6,2,6
2012/7/16 10:50,2.1,6,2.2,6,2.7,5
2012/7/16 10:51,2.2,6,2.3,6,5.7,6
2012/7/16 10:52,2,6,2.2,6,4.2,5
2012/7/16 10:53,2.2,6,2.2,6,5.8,6
2012/7/16 10:54,2.2,6,2.2,6,4.7,7
2012/7/16 10:55,2.2,6,2.2,6,3.9,5
2012/7/16 10:56,2.3,6,2.3,6,4.4,7
2012/7/16 10:57,2.5,6,2.5,6,5.4,6
2012/7/16 10:58,2.6,6,2.6,6,4.3,6
2012/7/16 10:59,2.8,6,2.8,6,3.7,6
2012/7/16 11:00,2.8,6,2.8,6,3.2,5
2012/7/16 11:01,2.7,6,2.8,6,3.7,5
2012/7/16 11:02,2.7,6,2.8,6,3.2,4
2012/7/16 11:03,2.6,6,2.7,6,3.5,4
2012/7/16 11:04,2.5,6,2.6,6,2.7,4
2012/7/16 11:05,2.4,6,2.4,6,1.5,5
2012/7/16 11:06,2.3,5,2.3,6,2.6,5
2012/7/16 11:07,2.1,5,2.3,6,2.9,4
2012/7/16 11:08,1.9,5,2.1,6,2,5
2012/7/16 11:09,2,5,2,6,6.2,7
2012/7/16 11:10,2.1,5,2.1,6,4.9,6
2012/7/16 11:11,2.2,5,2.2,6,4.5,5
2012/7/16 11:12,2.2,5,2.2,6,3.3,6
2012/7/16 11:13,2.2,6,2.2,6,4.4,7
2012/7/16 11:14,2.2,6,2.2,6,4.2,7
2012/7/16 11:15,2.4,6,2.4,6,3.7,6
2012/7/16 11:16,2.3,6,2.4,6,3,7
2012/7/16 11:17,2.4,6,2.4,6,3.6,7
2012/7/16 11:18,2.6,6,2.6,6,4.4,6
2012/7/16 11:19,2.6,6,2.6,6,4.8,6
2012/7/16 11:20,2.6,6,2.6,6,5.7,6
2012/7/16 11:21,2.5,6,2.6,6,3.5,6
2012/7/16 11:22,2.5,6,2.5,6,3.1,6
2012/7/16 11:23,2.4,6,2.5,6,3.2,6
2012/7/16 11:24,2.6,6,2.6,6,5.6,6
2012/7/16 11:25,2.6,6,2.6,6,4.2,5
2012/7/16 11:26,2.8,5,2.8,6,4.4,5
2012/7/16 11:27,2.8,5,2.8,6,4.7,6
2012/7/16 11:28,2.9,5,2.9,5,4.4,5
2012/7/16 11:29,2.9,5,2.9,5,4.3,3
2012/7/16 11:30,2.8,5,2.9,5,3.8,6
2012/7/16 11:31,2.8,5,2.8,5,3.7,6
2012/7/16 11:32,2.7,5,2.7,5,2.5,7
2012/7/16 11:33,2.8,5,2.8,5,4.1,5
2012/7/16 11:34,2.7,5,2.8,5,4.8,5
2012/7/16 11:35,2.7,6,2.7,5,5.2,6
2012/7/16 11:36,2.8,6,2.8,5,4.9,6
2012/7/16 11:37,2.7,6,2.8,5,3.3,6
2012/7/16 11:38,2.6,6,2.7,5,3.5,6
2012/7/16 11:39,2.6,6,2.6,5,3.3,6
2012/7/16 11:40,2.6,6,2.6,5,3.7,5
2012/7/16 11:41,2.7,6,2.7,5,4.7,3
2012/7/16 11:42,2.9,6,2.9,6,5.4,3
2012/7/16 11:43,2.9,5,2.9,6,4.7,3
2012/7/16 11:44,2.9,5,2.9,6,3.6,5
2012/7/16 11:45,2.7,5,2.9,6,3.6,4
2012/7/16 11:46,2.6,5,2.7,6,3.5,4
2012/7/16 11:47,2.6,5,2.6,6,2.9,7
2012/7/16 11:48,2.4,5,2.6,6,1.8,7
2012/7/16 11:49,2.3,5,2.4,6,3.6,2